Location: Sabalos
(43.2860°N, 0.1414°E)
Time: 20:25:23
(UTC+00:00)

ALOS 2 - Pass Details

Date: 05 July 2020
Orbit: 630 x 632 km, 97.9° (Epoch: 14 August)

Event Time Altitude Azimuth Distance (km) Brightness Sun altitude
Exits shadow 23:35:25 76° 236° (SW) 655 2.5 -23.7°
Maximum altitude 23:35:33 77° 258° (WSW) 653 2.5 -23.7°
Drops below altitude 10° 23:39:57 10° 344° (NNW) 2,023 6.3 -23.8°
Sets 23:42:10 0° 346° (NNW) 2,936 7.4 -23.9°
